| time (UTC) | temp F | wind direction | speed knots | gust knots | rain 1hr in | rain 24hr in | rain mn in | humidity % | barometer mb |
| 20260505041525 | 68 | 87 | 1.7 | 5.2 | 0.00 | 0.00 | 0.00 | 74 | 1017.5 |
| 20260505040524 | 68 | 149 | 5.2 | 8.7 | 0.00 | 0.00 | 0.00 | 74 | 1017.6 |
| 20260505035543 | 68 | 157 | 6.1 | 10.4 | 0.00 | 0.00 | 0.00 | 73 | 1017.6 |
| 20260505034521 | 68 | 171 | 3.5 | 5.2 | 0.00 | 0.00 | 0.00 | 74 | 1017.4 |
| 20260505033520 | 69 | 143 | 6.1 | 9.6 | 0.00 | 0.00 | 0.00 | 71 | 1017.4 |
| 20260505032519 | 69 | 132 | 4.3 | 6.1 | 0.00 | 0.00 | 0.00 | 71 | 1017.7 |
| 20260505031517 | 69 | 155 | 5.2 | 8.7 | 0.00 | 0.00 | 0.00 | 70 | 1017.7 |
| 20260505030546 | 69 | 162 | 5.2 | 5.2 | 0.00 | 0.00 | 0.00 | 71 | 1017.9 |
| 20260505025605 | 69 | 175 | 8.7 | 11.3 | 0.00 | 0.00 | 0.00 | 73 | 1018.0 |
| 20260505024543 | 69 | 181 | 7.0 | 10.4 | 0.00 | 0.00 | 0.00 | 74 | 1018.2 |
| 20260505023602 | 69 | 171 | 8.7 | 10.4 | 0.00 | 0.00 | 0.00 | 77 | 1018.4 |
| 20260505022601 | 69 | 134 | 7.0 | 8.7 | 0.00 | 0.00 | 0.00 | 78 | 1018.4 |
| 20260505021600 | 69 | 129 | 11.3 | 15.6 | 0.00 | 0.00 | 0.00 | 79 | 1018.4 |
| 20260505020538 | 69 | 129 | 6.1 | 8.7 | 0.00 | 0.00 | 0.00 | 80 | 1018.5 |
| 20260505015536 | 69 | 135 | 3.5 | 4.3 | 0.00 | 0.00 | 0.00 | 82 | 1018.6 |
| 20260505014535 | 69 | 146 | 6.1 | 9.6 | 0.00 | 0.00 | 0.00 | 83 | 1018.7 |
| 20260505013534 | 69 | 127 | 6.1 | 7.8 | 0.00 | 0.00 | 0.00 | 82 | 1018.9 |
| 20260505012553 | 69 | 127 | 4.3 | 7.0 | 0.00 | 0.00 | 0.00 | 82 | 1018.9 |
| 20260505011531 | 69 | 171 | 8.7 | 12.2 | 0.00 | 0.00 | 0.00 | 81 | 1018.8 |
| 20260505010530 | 69 | 161 | 5.2 | 8.7 | 0.00 | 0.00 | 0.00 | 82 | 1018.9 |
| 20260505005529 | 70 | 138 | 7.8 | 12.2 | 0.00 | 0.00 | 0.00 | 79 | 1019.1 |
| 20260505004609 | 70 | 167 | 5.2 | 7.8 | 0.00 | 0.00 | 0.00 | 78 | 1019.1 |
| 20260505003527 | 70 | 160 | 4.3 | 6.1 | 0.00 | 0.00 | 0.00 | 81 | 1019.0 |
| 20260505002525 | 69 | 151 | 6.1 | 8.7 | 0.00 | 0.00 | 0.00 | 85 | 1018.9 |
| 20260505001525 | 70 | 192 | 4.3 | 8.7 | 0.00 | 0.00 | 0.00 | 86 | 1018.9 |
| 20260505000523 | 69 | 155 | 8.7 | 11.3 | 0.00 | 0.00 | 0.00 | 85 | 1018.8 |
| 20260504235522 | 70 | 153 | 5.2 | 7.8 | 0.00 | 0.00 | 0.00 | 86 | 1018.9 |
| 20260504234521 | 69 | 185 | 2.6 | 5.2 | 0.00 | 0.00 | 0.00 | 86 | 1018.9 |
| 20260504233520 | 70 | 118 | 3.5 | 5.2 | 0.00 | 0.00 | 0.00 | 87 | 1018.7 |
| 20260504232518 | 69 | 128 | 4.3 | 5.2 | 0.00 | 0.00 | 0.00 | 88 | 1018.6 |
| 20260504231517 | 69 | 116 | 3.5 | 5.2 | 0.00 | 0.00 | 0.00 | 90 | 1018.6 |
| 20260504230516 | 69 | 164 | 2.6 | 3.5 | 0.00 | 0.00 | 0.00 | 92 | 1018.8 |
| 20260504225545 | 69 | 186 | 2.6 | 4.3 | 0.00 | 0.00 | 0.00 | 93 | 1018.8 |
| 20260504224543 | 68 | 181 | 2.6 | 3.5 | 0.00 | 0.00 | 0.00 | 94 | 1018.6 |
| 20260504223542 | 67 | 104 | 0.9 | 3.5 | 0.00 | 0.00 | 0.00 | 95 | 1018.5 |
| 20260504222621 | 66 | 245 | 0.9 | 2.6 | 0.00 | 0.00 | 0.00 | 96 | 1018.4 |
| 20260504221540 | 66 | 138 | 0.9 | 3.5 | 0.00 | 0.00 | 0.00 | 97 | 1018.1 |
| 20260504220558 | 66 | 101 | 1.7 | 3.5 | 0.00 | 0.00 | 0.00 | 98 | 1018.2 |
| 20260504215536 | 65 | 91 | 0.9 | 2.6 | 0.00 | 0.00 | 0.00 | 99 | 1018.4 |
| 20260504214535 | 65 | 166 | 0.9 | 1.7 | 0.00 | 0.00 | 0.00 | 99 | 1018.1 |
| 20260504213534 | 65 | 149 | 0.9 | 2.6 | 0.00 | 0.00 | 0.00 | 99 | 1018.1 |
| 20260504212532 | 65 | 63 | 1.7 | 2.6 | 0.00 | 0.00 | 0.00 | 99 | 1017.9 |
| 20260504211531 | 64 | 76 | 1.7 | 3.5 | 0.00 | 0.00 | 0.00 | 99 | 1017.8 |
| 20260504210550 | 64 | 15 | 1.7 | 2.6 | 0.00 | 0.00 | 0.00 | 99 | 1017.9 |
| 20260504205529 | 64 | 304 | 1.7 | 3.5 | 0.00 | 0.00 | 0.00 | 99 | 1017.8 |
| 20260504204527 | 64 | 11 | 0.9 | 1.7 | 0.00 | 0.00 | 0.00 | 99 | 1017.6 |
| 20260504203526 | 63 | 0.0 | 1.7 | 0.00 | 0.00 | 0.00 | 99 | 1017.4 | |
| 20260504202525 | 63 | 98 | 0.9 | 2.6 | 0.00 | 0.00 | 0.00 | 99 | 1017.3 |
| 20260504201524 | 63 | 115 | 0.9 | 1.7 | 0.00 | 0.00 | 0.00 | 99 | 1017.3 |
| 20260504200522 | 63 | 0.0 | 1.7 | 0.00 | 0.00 | 0.00 | 99 | 1017.2 | |
| 20260504195521 | 64 | 284 | 0.9 | 1.7 | 0.00 | 0.00 | 0.00 | 99 | 1017.1 |
| 20260504194520 | 64 | 333 | 0.9 | 1.7 | 0.00 | 0.00 | 0.00 | 99 | 1017.0 |
| 20260504193519 | 64 | 201 | 0.9 | 1.7 | 0.00 | 0.00 | 0.00 | 99 | 1016.9 |
| 20260504192518 | 65 | 84 | 1.7 | 3.5 | 0.00 | 0.00 | 0.00 | 99 | 1016.8 |
| 20260504191517 | 65 | 73 | 0.9 | 2.6 | 0.00 | 0.00 | 0.00 | 99 | 1016.7 |
| 20260504190546 | 65 | 235 | 0.9 | 2.6 | 0.00 | 0.00 | 0.00 | 99 | 1016.8 |
| 20260504185544 | 65 | 213 | 2.6 | 4.3 | 0.00 | 0.00 | 0.00 | 99 | 1016.8 |
| 20260504184543 | 65 | 132 | 1.7 | 2.6 | 0.00 | 0.00 | 0.00 | 99 | 1016.8 |
| 20260504183602 | 65 | 51 | 1.7 | 1.7 | 0.00 | 0.00 | 0.00 | 99 | 1016.5 |
| 20260504182540 | 65 | 315 | 2.6 | 2.6 | 0.00 | 0.00 | 0.00 | 99 | 1016.6 |
| 20260504181539 | 65 | 346 | 2.6 | 3.5 | 0.00 | 0.00 | 0.00 | 99 | 1016.6 |
| 20260504180538 | 65 | 241 | 3.5 | 4.3 | 0.00 | 0.00 | 0.00 | 98 | 1016.4 |
| 20260504175536 | 65 | 327 | 2.6 | 3.5 | 0.00 | 0.00 | 0.00 | 98 | 1016.2 |
| 20260504174535 | 65 | 265 | 2.6 | 4.3 | 0.00 | 0.00 | 0.00 | 98 | 1016.1 |
| 20260504173534 | 65 | 182 | 0.9 | 2.6 | 0.00 | 0.00 | 0.00 | 98 | 1016.1 |
| 20260504172553 | 66 | 344 | 1.7 | 3.5 | 0.00 | 0.00 | 0.00 | 97 | 1016.0 |
| 20260504171532 | 66 | 321 | 2.6 | 5.2 | 0.00 | 0.00 | 0.00 | 97 | 1016.2 |
| 20260504170531 | 66 | 31 | 0.9 | 3.5 | 0.00 | 0.00 | 0.00 | 97 | 1016.2 |
| 20260504150545 | 65 | 0.0 | 1.7 | 0.00 | 0.00 | 0.00 | 98 | 1017.1 | |
| 20260504140558 | 68 | 53 | 1.7 | 1.7 | 0.00 | 0.00 | 0.00 | 95 | 1017.0 |
| 20260504130530 | 68 | 348 | 1.7 | 2.6 | 0.00 | 0.00 | 0.00 | 95 | 1017.8 |
| 20260504110545 | 67 | 18 | 0.9 | 1.7 | 0.00 | 0.00 | 0.00 | 93 | 1018.6 |
| 20260504100537 | 69 | 290 | 1.7 | 3.5 | 0.00 | 0.00 | 0.00 | 90 | 1018.4 |
| 20260504081544 | 72 | 307 | 1.7 | 2.6 | 0.00 | 0.04 | 0.00 | 86 | 1017.7 |
| 20260504080542 | 72 | 356 | 0.9 | 1.7 | 0.00 | 0.04 | 0.00 | 86 | 1017.7 |
| 20260504050529 | 73 | 42 | 5.2 | 9.6 | 0.00 | 0.04 | 0.00 | 83 | 1017.0 |